Terug naar catalogus

STARLINK-37900

ActiefCommunicatieVLEO
NORAD 69953·PAYLOAD·🇺🇸 United States

Gelanceerd Jul 9, 2026 vanaf Cape Canaveral Space Force Station

Loading…

Volgende Passages (komende 24 uur)

TLE

VersSource: CelesTrak SupGP

Epoch: Sep 14, 2026, 22:47 UTC

1 69953C 26157L   26257.94979167 -.00012624  00000+0 -37298-3 0  2572
2 69953  53.1593 359.6678 0001146  85.0937 172.4160 15.34396897    15

Volg STARLINK-37900 in realtime met AllMySat

Download on the App Store